User: anonymous   Login
Location: Follega
(52.8850°N, 5.7362°E)
Time: 17:40:24
(UTC+00:00)
Language:

CARTOSAT-1 - Orbit

View from above orbital plane
View from above orbital plane
View from above satellite
View from above satellite

Ground track
Ground track

The orbit data is extracted from the following two-line orbital elements,

1 28649U 05017A   20228.17894935  .00000006  00000-0  70508-5 0  9993
2 28649  97.8091 295.8091 0000521 161.4035 198.7199 14.83706182827211
Epoch (UTC): 15 August 2020 04:17:41
Eccentricity: 0.0000521
inclination: 97.8091°
perigee height: 617 km
apogee height: 618 km
right ascension of ascending node: 295.8091°
argument of perigee: 161.4035°
revolutions per day: 14.83706182
mean anomaly at epoch: 198.7199°
orbit number at epoch: 82721

The dashed part of the orbit path shows where the satellite is in the earth's shadow,  

DLR